User: anonymous   Login
Location: Unspecified
(51.0950°N, 12.9690°E)
Time: 00:11:05
(UTC+00:00)
Language:

Cosmos 1455 Rocket - Orbit

View from above orbital plane
View from above orbital plane
View from above satellite
View from above satellite

Ground track
Ground track

The orbit data is extracted from the following two-line orbital elements,

1 14033U 83037B   22020.57210797  .00000172  00000-0  17784-4 0  9997
2 14033  82.5057 211.1998 0017289 343.5826  16.4827 14.83898366707399
Epoch (UTC): 20 January 2022 13:43:50
Eccentricity: 0.0017289
inclination: 82.5057°
perigee height: 605 km
apogee height: 629 km
right ascension of ascending node: 211.1998°
argument of perigee: 343.5826°
revolutions per day: 14.83898366
mean anomaly at epoch: 16.4827°
orbit number at epoch: 70739

The dashed part of the orbit path shows where the satellite is in the earth's shadow,  

DLR